EW1970 Weather Reports


time (UTC)temp
C
wind
direction
speed
KPH
gust
KPH
rain 1hr
cm
rain 24hr
cm
rain mn
cm
humidity
%
barometer
mb
20260902234530 33 209 1.6 6.4 0.00 0.00 0.00 51 1012.2
20260902233029 33 23 0.0 3.2 0.00 0.00 0.00 50 1011.8
20260902231517 34 310 3.2 11.3 0.00 0.00 0.00 45 1011.8
20260902230016 33 76 0.0 3.2 0.00 0.00 0.00 50 1011.8
20260902224527 34 78 0.0 3.2 0.00 0.00 0.00 50 1011.6
20260902223032 33 68 0.0 3.2 0.00 0.00 0.00 56 1011.6
20260902221534 32 348 0.0 0.0 0.00 0.00 0.00 58 1011.7
20260902220018 32 348 0.0 0.0 0.00 0.00 0.00 57 1011.8
20260902214528 33 348 0.0 0.0 0.00 0.00 0.00 49 1011.8
20260902213030 33 348 0.0 1.6 0.00 0.00 0.00 49 1011.9
20260902211531 34 317 0.0 3.2 0.00 0.00 0.00 48 1012.0
20260902210049 35 333 0.0 3.2 0.00 0.00 0.00 45 1012.1
20260902204516 35 323 0.0 3.2 0.00 0.00 0.00 44 1012.3
20260902203024 35 28 0.0 9.7 0.00 0.00 0.00 44 1012.6
20260902201537 35 211 0.0 4.8 0.00 0.00 0.00 40 1012.8
20260902200034 38 149 1.6 4.8 0.00 0.00 0.00 36 1013.0
20260902194538 38 219 3.2 12.9 0.00 0.00 0.00 36 1013.3
20260902193035 38 225 0.0 9.7 0.00 0.00 0.00 38 1013.6
20260902191529 38 111 1.6 4.8 0.00 0.00 0.00 37 1013.8
20260902190037 37 86 1.6 6.4 0.00 0.00 0.00 37 1014.1
20260902184512 36 281 0.0 4.8 0.00 0.00 0.00 39 1014.4
20260902183018 38 302 1.6 11.3 0.00 0.00 0.00 37 1014.6
20260902181513 38 309 1.6 8.0 0.00 0.00 0.00 38 1014.9
20260902180007 37 158 1.6 9.7 0.00 0.00 0.00 41 1015.3
20260902174509 37 327 0.0 9.7 0.00 0.00 0.00 40 1015.6
20260902173017 36 244 1.6 6.4 0.00 0.00 0.00 41 1015.9
20260902171521 36 36 3.2 12.9 0.00 0.00 0.00 42 1016.0
20260902170017 36 249 1.6 6.4 0.00 0.00 0.00 45 1016.2
20260902164507 35 248 0.0 6.4 0.00 0.00 0.00 46 1016.3
20260902163012 34 232 1.6 9.7 0.00 0.00 0.00 46 1016.4
20260902161524 33 296 4.8 9.7 0.00 0.00 0.00 48 1016.4
20260902160022 33 215 4.8 12.9 0.00 0.00 0.00 49 1016.3
20260902154528 32 237 3.2 11.3 0.00 0.00 0.00 53 1016.4
20260902153015 31 227 1.6 6.4 0.00 0.00 0.00 57 1016.4
20260902151520 30 290 4.8 11.3 0.00 0.00 0.00 59 1016.5
20260902150027 30 270 0.0 4.8 0.00 0.00 0.00 65 1016.5
20260902144534 28 312 1.6 8.0 0.00 0.00 0.00 66 1016.5
20260902143028 28 219 1.6 6.4 0.00 0.00 0.00 69 1016.6
20260902141518 28 249 1.6 11.3 0.00 0.00 0.00 72 1016.5
20260902140033 27 261 3.2 12.9 0.00 0.00 0.00 74 1016.3
20260902134534 26 279 0.0 3.2 0.00 0.00 0.00 78 1016.2
20260902133029 25 223 0.0 1.6 0.00 0.00 0.00 83 1016.2
20260902131542 24 252 0.0 0.0 0.00 0.00 0.00 83 1016.1
20260902130020 23 252 0.0 0.0 0.00 0.00 0.00 84 1016.0
20260902124527 23 252 0.0 0.0 0.00 0.00 0.00 84 1015.8
20260902123007 23 252 0.0 0.0 0.00 0.00 0.00 84 1015.8
20260902121514 23 252 0.0 0.0 0.00 0.00 0.00 83 1015.6
20260902120018 23 252 0.0 0.0 0.00 0.00 0.00 83 1015.5
20260902114524 23 252 0.0 0.0 0.00 0.00 0.00 82 1015.5
20260902113004 24 252 0.0 0.0 0.00 0.00 0.00 81 1015.5
20260902111515 24 252 0.0 0.0 0.00 0.00 0.00 81 1015.4
20260902110015 24 252 0.0 0.0 0.00 0.00 0.00 80 1015.3
20260902104521 25 252 0.0 0.0 0.00 0.00 0.00 79 1015.4
20260902103036 25 252 0.0 3.2 0.00 0.00 0.00 78 1015.5
20260902101506 25 252 0.0 3.2 0.00 0.00 0.00 77 1015.5
20260902100014 25 252 0.0 3.2 0.00 0.00 0.00 78 1015.6
20260902094517 25 252 0.0 1.6 0.00 0.00 0.00 80 1015.6
20260902093023 25 235 0.0 3.2 0.00 0.00 0.00 80 1015.6
20260902091556 25 237 0.0 3.2 0.00 0.00 0.00 80 1015.6
20260902090010 25 25 0.0 0.0 0.00 0.00 0.00 80 1015.7
20260902084516 25 25 0.0 0.0 0.00 0.00 0.00 78 1015.6
20260902083021 25 25 0.0 0.0 0.00 0.00 0.00 78 1015.6
20260902081533 25 25 0.0 0.0 0.00 0.00 0.00 78 1015.9
20260902080037 25 25 0.0 0.0 0.00 0.00 0.00 77 1015.8
20260902074516 25 52 0.0 0.0 0.00 0.00 0.00 77 1015.9
20260902073022 26 52 0.0 0.0 0.00 0.00 0.00 76 1015.9
20260902071549 26 52 0.0 0.0 0.00 0.00 0.00 75 1015.9
20260902070031 26 52 0.0 0.0 0.00 0.00 0.00 74 1016.0
20260902064531 26 52 0.0 1.6 0.00 0.00 0.00 74 1016.1
20260902063025 27 77 0.0 0.0 0.00 0.00 0.00 73 1016.1
20260902061539 27 77 0.0 3.2 0.00 0.00 0.00 72 1016.0
20260902060032 27 132 0.0 1.6 0.00 0.00 0.00 71 1016.0
20260902054541 27 110 0.0 3.2 0.00 0.00 0.00 69 1015.9
20260902053033 28 136 0.0 3.2 0.00 0.00 0.00 68 1015.7
20260902051526 28 141 0.0 3.2 0.00 0.00 0.00 67 1015.8
20260902050040 28 98 0.0 3.2 0.00 0.00 0.00 66 1015.8
20260902044532 29 148 0.0 8.0 0.00 0.00 0.00 65 1015.8
20260902043033 29 167 0.0 6.4 0.00 0.00 0.00 64 1015.8
20260902041505 29 108 0.0 4.8 0.00 0.00 0.00 63 1015.7
20260902040004 30 114 0.0 3.2 0.00 0.00 0.00 62 1015.7
20260902034507 30 126 0.0 3.2 0.00 0.00 0.00 61 1015.5
20260902033011 30 142 0.0 4.8 0.00 0.00 0.00 61 1015.3
20260902031517 30 146 0.0 3.2 0.00 0.00 0.00 60 1015.2
20260902030004 30 157 0.0 8.0 0.00 0.00 0.00 59 1014.9
20260902024504 30 258 0.0 4.8 0.00 0.00 0.00 58 1014.5
20260902023015 31 78 0.0 3.2 0.00 0.00 0.00 57 1014.3
20260902021513 30 64 0.0 6.4 0.00 0.00 0.00 57 1014.0
20260902020023 30 129 0.0 4.8 0.00 0.00 0.00 56 1013.9
20260902014504 31 95 0.0 6.4 0.00 0.00 0.00 54 1013.8
20260902013005 31 126 0.0 3.2 0.00 0.00 0.00 53 1013.6
20260902011521 31 159 0.0 6.4 0.00 0.00 0.00 51 1013.5
20260902010036 32 49 0.0 4.8 0.00 0.00 0.00 50 1013.4
20260902004527 32 182 0.0 9.7 0.00 0.00 0.00 50 1013.5
20260902003004 33 157 0.0 11.3 0.00 0.00 0.00 47 1013.6
20260902001512 33 74 0.0 9.7 0.00 0.00 0.00 46 1013.6
20260902000024 34 65 0.0 6.4 0.00 0.00 0.00 42 1013.5